Location: Grand Mazuras
(45.9128°N, 1.7636°E)
Time: 04:36:12
(UTC+00:00)

SL-08 R/B - Pass Details

Date: 18 April 2021
Orbit: 947 x 993 km, 83.0° (Epoch: 10 May)

Event Time Altitude Azimuth Distance (km) Brightness Sun altitude
Rises 22:23:09 0° 350° (N) 3,643 8.6 -29.5°
Reaches altitude 10° 22:25:39 10° 350° (N) 2,699 7.7 -29.7°
Enters shadow 22:31:43 83° 289° (WNW) 978 4.4 -30.1°
